This is the latest recevied weather packets stored in our database for station/object KG4AGD. If no packets are shown the sender has not sent any weather packets the latest 10 day(s).
| Time | Temp. | Humidity | Pressure | Rain* | Wind** | Luminosity | Snow |
|---|---|---|---|---|---|---|---|
| 1778002365 | 27.22° C | 50% | 1017.9 hPa | 0 mm | - | - | - |
| 1778002063 | 26.67° C | 49% | 1017.9 hPa | 0 mm | - | - | - |
| 1778001760 | 26.67° C | 52% | 1017.9 hPa | 0 mm | - | - | - |
| 1778001458 | 27.22° C | 53% | 1017.9 hPa | 0 mm | - | - | - |
| 1778001156 | 26.67° C | 51% | 1017.9 hPa | 0 mm | - | - | - |
| 1778000853 | 26.11° C | 52% | 1018.2 hPa | 0 mm | - | - | - |
| 1778000551 | 26.11° C | 52% | 1018.2 hPa | 0 mm | - | - | - |
| 1778000249 | 26.11° C | 53% | 1018.2 hPa | 0 mm | - | - | - |
| 1777999947 | 26.11° C | 53% | 1018.2 hPa | 0 mm | - | - | - |
| 1777999644 | 26.11° C | 54% | 1018.2 hPa | 0 mm | - | - | - |
| 1777999342 | 26.11° C | 53% | 1018.2 hPa | 0 mm | - | - | - |
| 1777999040 | 25.56° C | 56% | 1018.2 hPa | 0 mm | - | - | - |
| 1777998738 | 25.56° C | 56% | 1018.2 hPa | 0 mm | - | - | - |
| 1777998436 | 25.56° C | 56% | 1018.6 hPa | 0 mm | - | - | - |
| 1777998133 | 25.56° C | 58% | 1018.2 hPa | 0 mm | - | - | - |
| 1777997831 | 25° C | 55% | 1018.6 hPa | 0 mm | - | - | - |
| 1777997528 | 25.56° C | 55% | 1018.6 hPa | 0 mm | - | - | - |
| 1777997226 | 25.56° C | 55% | 1018.6 hPa | 0 mm | - | - | - |
| 1777996924 | 25.56° C | 56% | 1018.9 hPa | 0 mm | - | - | - |
| 1777996621 | 25.56° C | 55% | 1018.9 hPa | 0 mm | - | - | - |
| 1777996319 | 25.56° C | 55% | 1018.9 hPa | 0 mm | - | - | - |
| 1777996016 | 25° C | 58% | 1018.9 hPa | 0 mm | - | - | - |
| 1777995714 | 24.44° C | 58% | 1018.9 hPa | 0 mm | - | - | - |
| 1777995412 | 24.44° C | 58% | 1018.9 hPa | 0 mm | - | - | - |
| 1777995110 | 24.44° C | 59% | 1018.9 hPa | 0 mm | - | - | - |
* Rain since midnight (hover to see other rain measurements)
** Current wind speed in m/s (hover to see current wind gust speed)